Theta_e
325 321 317 317 317 315 315 306 298 295 295 289 288 289 293 295 297 294 295 295 297 305 307 314 311 308 303 307 314 316 316 310 310 294 295 306 325 335 339 341 341 341 340 341 343 344 344 346 348 346 345 345 344 344 343 343 344 344 344 344 344 344 346 345 344 344 344 343 343 343 343 343 344 343 342 343 341 341 341 341 342 343 343 343 343 342 342 342 342 342 342 341 341 340 339 338 337
322 317 316 316 313 311 309 301 292 288 288 287 291 290 291 293 295 293 294 294 297 309 309 312 315 318 319 318 318 315 317 320 320 319 321 330 333 337 340 341 342 340 341 342 343 343 343 345 348 346 345 344 343 343 343 343 343 344 345 346 345 345 345 345 344 345 343 343 344 343 343 343 342 342 342 342 341 342 341 340 341 340 340 341 342 342 341 340 341 341 340 341 341 340 340 339 337
318 315 314 315 311 309 305 302 297 284 288 288 287 292 294 293 293 294 295 301 308 309 302 310 315 312 310 310 312 309 307 319 323 324 325 328 329 332 340 341 342 342 342 342 343 343 343 344 347 346 344 344 343 343 344 344 345 346 345 345 346 345 345 345 345 345 343 343 343 343 343 342 343 343 342 341 341 341 339 338 337 337 338 339 339 339 339 339 338 341 340 339 339 338 338 338 337
315 315 312 310 308 305 300 295 290 289 290 284 286 291 292 293 294 295 297 303 303 296 300 309 313 314 312 312 312 313 314 317 319 320 319 324 328 337 339 342 343 342 341 342 341 342 342 345 346 346 345 343 343 344 344 346 346 345 345 344 344 345 346 345 345 344 344 343 342 342 342 343 343 342 342 341 338 337 336 335 334 333 334 336 337 337 337 337 336 335 335 335 337 337 337 337 336
314 315 312 306 305 304 299 294 290 288 289 287 289 292 294 292 294 294 296 299 299 297 303 303 309 314 320 320 319 311 313 322 320 323 322 325 332 340 341 342 341 340 340 341 342 340 341 345 345 345 346 344 342 343 343 344 344 345 344 345 344 345 345 345 345 344 344 343 343 343 342 342 342 340 339 337 336 335 334 333 332 333 332 334 333 334 332 334 335 334 334 333 336 337 336 336 334
312 310 313 309 306 307 300 296 294 292 291 291 293 297 295 294 295 295 302 306 306 308 303 305 306 307 313 319 323 320 325 316 323 323 323 329 339 341 342 341 342 338 341 341 341 341 340 344 344 345 345 344 342 342 341 343 345 345 344 344 344 344 345 344 344 344 343 343 342 342 341 340 339 338 336 336 336 335 333 332 331 330 330 332 331 332 333 332 331 331 333 333 333 335 336 335 334
307 307 304 308 306 303 296 288 290 290 296 296 298 298 299 297 295 297 295 299 303 312 311 310 311 312 308 311 318 326 329 328 325 324 326 332 342 342 341 343 342 339 338 340 340 339 339 341 344 345 346 344 343 342 342 345 345 345 344 344 344 345 345 344 344 343 343 342 341 340 339 338 338 337 337 336 336 335 333 331 331 332 332 331 330 331 331 331 330 331 331 332 332 333 334 334 334
315 305 303 299 295 299 292 291 291 292 297 298 300 300 300 302 295 296 298 298 298 303 308 308 311 314 313 318 313 325 329 332 332 333 336 340 338 339 342 342 342 338 338 338 339 339 342 340 342 344 345 345 343 342 342 343 345 344 344 343 343 342 343 343 343 342 342 341 340 340 339 338 338 337 337 336 335 334 331 330 330 330 330 330 330 330 330 331 332 331 331 330 330 331 331 331 331
304 303 304 301 296 293 290 292 293 296 297 300 300 302 309 300 298 299 305 301 305 308 308 308 307 306 310 317 317 323 328 333 334 333 334 334 335 335 336 340 341 336 335 338 338 338 338 339 341 343 344 345 346 345 344 344 344 343 342 342 341 341 342 343 342 341 341 341 340 339 338 338 338 337 337 336 335 334 332 331 330 330 329 329 330 332 331 331 331 330 329 330 330 329 330 331 331
301 304 300 298 294 294 290 291 294 297 300 302 299 300 299 298 304 310 308 309 309 310 310 313 310 311 315 314 317 323 325 329 332 331 333 333 334 333 332 336 338 336 336 338 337 337 339 340 338 340 342 343 344 344 344 343 343 343 341 341 340 341 341 341 341 341 340 340 339 338 338 337 337 337 337 336 335 334 333 331 330 331 331 329 330 330 330 330 330 329 329 330 329 328 329 329 330
299 298 299 299 292 292 292 290 291 297 300 301 301 303 305 300 303 301 303 302 302 306 308 308 314 314 316 317 319 327 325 325 327 328 332 332 332 332 332 335 335 335 334 336 337 337 337 339 340 338 340 340 342 343 343 343 342 341 341 341 340 340 340 340 341 341 340 340 339 338 338 337 336 336 337 337 336 334 332 332 330 331 330 330 330 329 329 329 329 330 330 328 328 328 329 329 329
296 297 299 293 291 294 292 293 294 298 297 298 299 307 309 310 309 307 308 307 307 310 310 308 309 315 314 316 316 318 319 320 324 331 333 334 333 334 334 335 336 336 335 335 337 337 337 337 338 341 337 337 338 339 340 342 343 342 341 341 340 340 340 340 340 340 340 339 339 338 337 337 337 336 336 338 337 337 334 333 332 332 332 333 331 331 331 331 330 330 330 329 329 330 329 329 328
295 294 293 293 290 293 292 295 295 297 292 299 300 309 311 311 308 309 307 306 306 308 305 304 309 313 310 313 317 314 313 315 325 328 326 324 325 326 328 329 328 330 333 334 334 336 337 337 338 337 335 335 335 336 336 338 341 343 342 341 340 340 340 340 340 339 339 336 339 340 339 337 337 337 337 338 336 337 337 337 335 332 333 333 333 332 332 334 334 333 332 332 332 331 331 331 330
296 297 298 294 291 293 294 293 293 292 292 298 303 308 309 309 306 307 307 302 298 304 304 304 307 312 309 315 310 308 310 314 320 323 319 318 319 319 320 321 322 321 322 324 328 333 334 337 338 337 335 334 333 334 334 334 336 338 339 340 341 342 341 341 340 340 339 338 338 337 337 338 338 339 337 337 336 335 335 334 335 335 334 334 334 334 334 334 333 334 334 334 334 334 334 333 333
297 295 291 290 290 293 292 295 295 292 293 304 306 305 304 304 305 302 302 301 297 302 309 306 304 309 300 306 304 304 308 312 317 317 315 315 315 315 315 316 316 317 317 318 321 324 328 336 337 337 337 337 336 335 335 334 332 333 335 335 335 335 334 335 335 334 334 333 333 333 333 334 334 334 335 336 335 334 334 334 331 331 334 335 335 335 335 335 335 335 334 334 335 335 335 334 334
297 295 292 291 290 293 293 293 293 295 298 305 304 304 301 302 303 300 301 302 299 302 302 298 304 302 302 300 302 306 310 312 316 312 311 311 311 311 312 312 313 314 314 314 315 319 322 330 334 334 335 335 336 336 335 335 332 331 332 333 333 333 332 331 329 327 329 329 328 328 330 331 331 331 333 333 333 333 333 328 330 330 332 334 336 336 336 336 336 335 335 335 335 335 335 335 334
295 296 292 286 290 292 293 295 294 292 304 300 305 305 299 299 304 304 306 304 299 299 300 300 299 303 300 301 305 308 310 312 310 307 307 307 307 307 308 309 310 311 312 312 311 313 318 321 327 333 333 334 335 334 333 334 333 332 332 331 330 330 330 330 329 328 329 327 326 326 328 328 330 329 328 328 331 329 328 326 328 330 332 334 335 335 336 336 336 336 336 336 335 334 334 334 334
296 294 290 288 289 293 294 296 295 301 300 299 300 301 303 300 302 304 304 301 301 300 299 301 302 300 301 303 304 306 308 304 304 303 303 304 304 303 304 305 306 306 308 309 310 310 313 317 320 325 331 333 333 334 334 333 333 332 332 332 334 332 331 332 332 334 335 333 327 328 329 330 330 329 329 330 329 329 326 326 327 328 331 333 334 335 335 335 336 337 336 336 335 334 333 331 328
289 286 290 292 290 295 296 297 300 301 296 297 298 299 298 297 301 301 296 294 295 295 297 298 297 299 301 301 302 303 302 300 300 300 299 299 300 300 301 303 304 305 305 306 308 308 309 312 316 319 324 328 332 332 333 333 333 334 333 333 333 331 332 332 333 332 332 332 332 331 330 329 329 328 329 330 332 328 328 324 325 327 329 330 331 332 333 333 334 334 335 334 334 333 330 327 326
290 291 289 289 294 296 298 299 299 300 298 296 295 295 294 295 298 301 295 293 293 291 291 294 294 294 297 299 299 300 298 297 298 298 297 298 298 298 299 300 301 302 303 304 305 307 307 309 312 315 319 323 328 331 332 332 332 332 332 332 331 331 330 330 330 329 329 330 330 330 330 330 329 329 330 331 331 327 324 322 322 323 325 326 326 327 328 328 330 331 331 331 331 330 329 328 327
291 289 287 294 295 295 297 300 299 299 299 295 294 294 293 293 295 299 299 296 291 291 293 292 292 293 295 297 296 297 295 295 295 296 295 296 297 298 298 299 299 300 302 302 303 304 305 306 309 313 316 319 324 328 329 330 330 330 330 329 328 327 326 326 325 324 324 325 325 326 327 326 326 326 325 325 325 322 320 321 320 320 321 322 323 321 322 322 323 321 321 324 323 325 325 327 328
290 292 292 296 297 295 296 297 298 297 297 295 294 292 291 294 293 291 292 289 288 291 293 293 293 294 294 294 294 295 294 293 293 293 294 294 294 295 297 297 299 300 301 299 300 302 303 305 307 311 314 317 321 325 325 325 325 324 324 323 322 322 322 321 321 320 319 319 320 321 323 323 323 323 323 322 321 320 320 320 320 318 318 319 320 320 320 320 321 320 322 323 323 323 323 323 325
289 289 292 296 298 295 295 296 295 296 294 293 291 292 293 291 290 291 290 288 291 295 294 294 294 294 295 295 294 292 292 292 292 292 293 293 293 294 295 296 296 296 298 298 300 300 303 303 305 309 312 315 317 319 319 319 319 319 319 318 316 316 317 316 316 316 315 314 315 317 319 320 321 321 321 322 322 321 320 320 320 320 321 321 320 320 320 320 320 322 322 321 321 321 322 323 323
290 290 293 293 296 294 295 294 295 295 294 292 295 296 292 291 287 292 289 291 293 294 294 294 294 294 294 293 293 292 291 291 292 293 293 293 293 293 294 294 295 296 296 297 298 299 300 301 303 306 309 312 314 314 313 313 313 313 312 313 312 313 312 313 312 312 311 309 309 310 314 317 317 316 317 318 320 320 320 320 320 320 321 321 320 320 321 322 322 322 321 320 320 321 321 322 322
292 289 291 292 293 293 294 294 293 293 292 293 293 290 289 290 289 291 289 292 293 293 294 294 293 293 293 292 292 291 291 291 291 292 293 293 293 294 294 294 294 295 294 296 297 298 299 301 301 304 307 309 310 310 308 309 309 308 307 307 308 310 309 310 309 307 306 306 306 307 308 310 312 313 313 314 316 316 316 317 317 318 319 320 321 322 322 322 322 322 321 321 321 320 320 320 320
289 291 292 292 292 293 294 293 293 293 293 293 290 288 290 291 293 288 291 292 294 293 293 293 293 292 292 291 291 291 291 291 291 291 291 292 293 292 292 292 293 293 294 295 296 297 298 299 300 301 304 307 307 307 305 305 305 305 305 305 305 306 306 307 306 304 304 303 303 304 305 306 308 309 310 312 312 311 312 313 313 314 315 318 320 320 321 321 321 321 321 321 321 321 321 321 320
294 292 293 292 292 293 293 291 291 292 291 291 288 287 288 292 291 285 291 293 294 292 291 292 291 290 291 291 291 291 291 290 290 291 291 291 291 290 291 291 292 292 293 293 295 296 298 298 299 300 303 306 305 305 304 303 303 303 304 304 304 304 304 304 304 303 302 301 301 302 303 304 305 307 307 308 310 310 309 310 311 312 313 314 315 315 318 318 320 320 320 320 320 321 321 321 320
293 293 292 291 292 293 293 292 291 293 290 292 290 287 289 290 289 286 289 293 293 292 290 290 290 290 290 291 291 291 291 291 291 291 289 289 289 290 289 290 291 292 292 292 294 296 296 297 298 299 301 303 303 303 304 302 302 302 302 302 302 302 303 302 302 301 300 300 300 300 300 301 303 303 304 305 306 307 308 308 310 311 311 312 312 312 312 313 315 315 314 316 319 320 320 320 320
293 293 288 290 294 292 293 293 292 292 291 294 293 291 285 286 284 289 292 292 292 292 290 290 289 290 290 290 290 290 290 291 291 290 290 290 290 290 289 290 291 291 292 293 293 295 295 295 297 298 300 301 301 300 301 301 300 300 300 300 300 301 300 301 301 300 299 299 298 299 299 299 300 300 301 302 303 303 304 306 307 308 309 310 310 310 310 311 311 310 310 312 314 317 317 316 315
294 294 292 291 291 289 291 295 292 291 292 293 292 281 282 284 287 290 292 291 291 290 290 290 289 289 289 290 289 290 290 290 289 289 290 290 290 290 289 290 292 291 292 292 293 293 296 296 296 297 298 299 301 300 300 299 299 299 299 298 299 298 297 297 298 297 297 296 296 296 297 297 297 298 299 299 300 300 301 302 303 304 306 307 308 307 306 307 308 308 307 308 310 311 308 307 306
290 293 294 289 288 285 291 291 290 288 291 292 291 281 281 284 287 290 293 292 290 287 288 289 289 289 289 289 289 289 290 290 290 290 291 291 290 290 290 290 291 292 292 292 293 293 294 295 297 296 298 297 298 299 298 297 297 297 297 297 297 297 296 296 296 295 295 294 294 294 295 295 295 295 297 297 297 297 297 298 299 301 303 304 304 303 303 303 304 305 305 305 308 307 304 304 303
292 290 286 290 288 287 289 291 290 286 290 292 290 280 281 284 286 289 292 291 290 287 287 288 288 289 289 288 288 288 288 289 289 290 291 291 291 290 290 290 291 291 291 292 293 294 294 295 296 295 296 296 297 298 298 296 296 296 296 297 295 296 295 294 294 294 294 293 293 292 293 295 293 293 294 295 294 294 295 295 297 298 298 299 299 299 299 300 301 302 302 303 303 302 300 300 300
289 290 287 285 287 285 287 289 290 290 287 289 290 280 282 283 287 289 291 292 289 286 286 287 287 289 289 289 288 288 287 288 289 289 290 291 291 290 290 290 290 290 291 291 292 293 294 295 296 296 295 295 296 296 297 297 295 295 294 295 294 294 294 293 293 293 293 292 292 291 292 294 292 292 292 293 293 292 292 292 294 295 296 295 295 295 295 297 298 299 299 300 301 299 297 297 298
285 290 286 287 285 286 284 288 289 289 287 283 287 283 283 284 287 288 289 289 289 286 286 286 287 287 288 289 289 289 289 287 287 289 289 291 291 290 290 291 290 290 291 290 290 291 292 293 295 296 296 297 296 296 296 296 295 295 294 294 295 293 293 293 293 292 292 292 291 291 292 292 293 291 291 292 292 292 291 291 292 292 293 292 292 292 292 294 294 296 296 298 299 297 294 294 295
285 285 284 282 284 285 283 283 285 287 286 283 283 283 283 284 286 287 288 288 286 285 286 285 285 286 286 287 287 288 287 288 288 288 289 290 290 291 290 289 289 289 289 289 289 290 290 290 291 290 292 293 294 295 295 295 295 294 294 293 293 292 292 292 292 292 292 291 291 291 291 291 292 291 291 291 291 290 290 290 290 291 291 290 290 290 290 291 291 292 293 294 296 296 294 294 294
288 287 286 285 283 282 282 284 287 287 283 282 282 280 281 284 285 285 286 286 284 284 285 285 286 286 286 286 287 285 286 286 288 288 288 289 289 289 289 289 289 288 288 288 289 288 288 288 289 289 290 291 292 292 293 293 293 293 291 291 291 291 291 292 291 291 291 291 292 291 290 290 290 292 290 290 290 290 289 289 289 290 290 289 288 288 288 289 289 289 290 291 291 293 293 292 293
288 287 285 283 282 282 285 285 287 288 284 282 282 282 282 283 284 283 284 284 283 282 282 283 283 284 285 285 285 285 285 285 288 288 288 288 288 288 288 288 287 287 287 286 286 287 287 287 288 287 288 289 290 289 290 290 290 291 291 290 289 290 290 290 290 290 290 290 290 290 290 290 290 290 291 290 289 290 289 289 289 289 289 289 288 287 288 288 289 289 289 290 289 288 289 290 291
287 285 283 282 283 281 285 285 287 289 284 281 283 281 280 280 281 282 283 282 281 281 281 281 282 282 284 284 284 284 285 287 287 286 286 285 285 286 286 286 288 285 286 286 285 286 286 287 286 287 288 288 289 289 288 289 289 289 289 289 289 288 288 287 287 289 289 290 290 290 289 289 289 289 291 290 289 289 288 288 288 288 288 288 288 288 288 289 288 288 288 287 288 287 286 288 289
287 285 283 281 281 284 285 286 287 286 284 280 283 280 279 280 281 282 282 281 282 283 283 282 282 282 283 283 283 284 285 285 285 285 285 285 285 285 285 285 285 285 285 285 285 285 285 285 286 286 287 287 287 290 288 287 288 288 288 288 288 288 289 289 288 289 289 288 288 288 289 288 288 288 288 290 289 288 288 288 288 288 288 289 287 286 286 286 287 287 287 286 286 286 286 288 287
285 284 283 279 283 282 279 283 284 285 284 281 281 279 280 282 283 283 284 283 283 285 284 284 284 283 282 282 282 283 283 284 284 284 284 284 284 284 284 284 284 284 285 284 284 284 285 287 285 285 286 286 286 288 291 287 289 288 288 288 288 287 286 289 287 287 287 287 287 288 288 288 288 288 287 288 289 287 287 287 287 287 287 288 286 285 285 285 285 286 286 286 286 284 284 284 287
281 285 283 282 283 283 282 280 283 284 284 284 282 281 281 282 280 281 283 285 285 285 285 284 285 284 283 282 282 284 283 283 284 283 283 283 283 283 283 284 283 283 284 284 284 284 285 284 284 285 285 285 286 288 287 287 287 286 286 286 286 286 285 285 285 285 285 287 286 286 286 287 288 287 287 287 289 288 288 287 287 287 287 287 287 285 284 284 285 285 286 285 284 284 283 283 285
282 281 281 284 283 282 282 284 283 282 281 285 283 279 279 281 282 281 282 283 282 283 282 282 282 282 282 280 280 282 284 283 282 282 282 282 282 283 283 283 283 283 283 284 284 284 283 284 284 284 285 285 285 285 286 287 284 283 284 283 282 282 282 283 282 283 283 284 284 285 285 286 287 287 287 287 287 289 287 287 287 286 286 287 288 286 285 285 284 285 286 285 284 285 284 282 282
281 279 282 284 283 283 283 283 284 279 278 284 286 279 276 281 279 281 281 281 282 283 282 282 282 283 283 282 282 280 280 281 282 281 282 282 282 282 282 282 282 282 283 283 283 284 283 284 283 283 284 285 285 285 285 288 284 283 282 283 283 282 281 283 284 284 284 285 285 283 284 284 285 285 286 285 286 287 287 287 287 286 286 286 289 286 285 285 285 285 287 285 284 286 284 282 282
277 282 285 285 284 283 283 282 281 279 283 283 283 282 278 278 281 282 282 280 281 281 282 283 283 283 283 283 282 281 280 280 281 281 281 282 281 282 282 282 282 282 282 283 283 283 283 283 283 282 283 285 283 284 284 286 286 283 282 282 286 282 282 282 283 283 284 286 283 283 284 283 284 284 284 284 284 285 287 286 286 285 285 285 289 285 285 285 286 286 286 285 285 285 284 283 282
281 285 285 282 281 281 281 282 281 281 280 276 280 280 279 278 279 279 280 278 279 280 281 282 282 282 282 282 281 281 281 281 281 281 281 281 281 282 283 282 282 282 282 282 283 282 282 282 283 282 281 282 282 283 285 282 287 285 282 282 281 283 285 285 284 283 283 283 281 282 282 283 283 283 283 284 284 284 286 285 284 284 284 284 288 286 284 285 284 284 284 283 283 284 284 286 283
284 286 286 284 285 283 281 280 280 277 275 273 277 277 272 275 278 278 278 278 278 279 280 280 281 281 281 281 281 281 280 281 281 281 280 281 281 281 281 282 281 281 281 283 282 282 282 281 282 282 280 281 282 281 282 281 282 284 282 281 281 281 282 282 281 281 281 281 281 281 281 282 282 282 283 283 283 283 283 284 285 283 283 284 287 284 283 283 283 283 283 283 284 283 283 283 283
289 288 286 284 283 281 279 278 278 277 270 273 277 275 275 270 276 277 276 277 279 279 278 279 280 281 281 281 280 281 281 280 280 280 280 280 281 281 280 280 281 280 280 280 280 280 280 281 280 280 280 280 281 280 281 281 281 281 281 281 281 280 281 281 280 280 280 280 280 281 281 281 281 282 282 282 282 282 282 285 284 283 284 286 286 283 282 282 283 283 283 283 282 282 282 282 283
287 283 283 283 281 282 279 274 276 272 265 271 274 274 274 269 274 278 280 279 279 281 279 280 281 281 282 281 281 281 280 279 279 279 280 280 280 280 280 280 280 280 279 279 279 279 280 280 280 279 280 280 280 281 280 280 281 280 281 281 281 281 281 281 280 280 280 280 280 280 281 280 280 281 281 281 281 281 283 282 283 282 283 282 282 282 282 282 283 283 283 283 282 282 282 283 282
285 282 280 276 270 275 273 269 271 261 265 273 274 274 272 273 275 276 280 282 280 280 282 282 282 282 282 282 281 281 280 280 279 279 279 280 280 280 279 279 279 279 279 279 279 278 279 279 279 279 280 280 280 279 279 279 280 280 280 280 280 283 282 280 280 280 280 280 280 280 280 280 280 281 281 281 281 281 282 282 282 282 282 282 283 282 282 282 282 282 282 281 281 281 281 281 281
282 279 276 272 269 267 269 262 260 260 269 272 274 274 272 274 276 276 278 282 284 282 282 282 283 283 283 283 282 281 280 280 280 279 279 279 279 280 279 279 278 278 278 279 278 280 279 279 278 279 281 280 279 280 279 280 280 280 280 280 280 280 280 281 281 281 281 281 281 280 280 280 280 280 280 280 281 281 282 282 282 282 282 282 282 282 282 282 283 282 281 281 281 281 281 281 280
280 281 279 274 267 265 265 259 264 265 266 270 272 270 264 271 276 279 278 280 281 282 282 282 282 281 282 281 280 279 279 279 279 279 280 280 280 280 280 280 279 278 278 279 278 278 277 278 278 279 279 280 279 279 279 280 280 280 280 280 280 280 280 281 281 283 282 281 281 280 280 280 280 280 280 281 282 281 281 281 282 282 282 282 281 281 282 281 281 281 281 281 281 281 281 281 281
279 278 279 275 270 271 265 263 257 258 264 267 269 268 270 274 277 279 278 278 280 282 282 283 282 282 281 281 281 281 281 281 280 279 280 280 280 279 279 279 279 279 279 279 278 278 278 279 278 278 279 280 279 281 280 280 280 280 279 279 280 281 284 283 282 282 281 280 280 280 280 280 280 280 281 281 281 281 281 281 281 281 281 281 281 281 281 281 281 280 280 280 280 283 281 280 280
279 276 271 276 276 272 264 263 265 265 262 264 264 272 274 276 278 276 278 280 280 280 281 281 281 282 280 281 282 281 281 281 280 280 280 280 280 279 279 279 280 280 279 279 280 279 279 280 279 279 279 279 279 280 280 279 279 278 279 279 279 279 279 279 280 280 280 281 280 280 280 280 280 280 281 281 281 281 281 280 280 281 280 281 280 281 281 281 281 280 280 280 280 280 281 280 280
277 275 276 277 275 268 266 263 256 256 261 263 265 268 271 271 270 276 278 278 279 279 280 280 281 281 281 282 283 283 282 282 282 280 280 280 280 280 280 280 280 280 280 280 280 280 279 279 279 279 279 279 280 279 279 279 279 279 280 280 280 280 280 280 280 280 280 280 280 280 280 280 280 280 281 281 281 280 280 282 280 280 280 280 280 280 280 280 280 280 280 280 280 280 280 280 281
279 279 277 278 267 268 266 263 260 260 259 256 263 268 268 272 274 275 275 277 279 280 280 279 281 282 282 283 283 283 282 281 281 281 281 281 280 280 280 280 280 280 281 280 281 280 279 278 279 279 279 280 280 280 279 280 280 280 281 281 281 281 280 280 280 281 280 280 280 280 280 280 280 280 280 280 279 279 280 280 280 280 280 280 280 280 281 281 280 280 280 281 281 280 280 280 280
277 276 275 272 271 266 262 264 261 259 258 257 264 262 266 273 274 275 277 278 279 280 279 280 282 283 284 284 284 284 283 282 282 282 282 282 281 281 280 280 280 280 280 280 280 280 279 280 280 280 280 280 280 280 280 280 281 280 281 280 280 280 280 280 280 280 280 280 280 280 280 280 280 280 280 280 279 279 280 279 280 280 280 280 280 280 280 280 280 280 280 280 280 280 280 279 279
274 274 271 272 269 272 270 263 266 266 256 255 257 259 263 270 274 275 277 277 279 280 281 282 282 283 284 284 284 284 283 283 283 283 283 283 282 282 281 280 280 280 279 280 280 280 280 280 280 280 280 280 280 281 280 280 280 280 280 279 280 280 280 280 279 279 279 279 280 280 280 280 280 279 280 279 279 279 279 280 280 280 280 280 280 280 281 280 280 280 280 280 280 280 279 279 280
273 273 272 272 269 265 264 262 266 260 264 256 255 262 265 272 276 276 276 277 278 279 280 281 282 282 282 283 284 284 284 284 284 284 283 283 283 282 282 281 280 279 280 280 280 280 280 280 281 281 280 280 280 281 281 281 280 280 279 280 280 280 280 280 279 279 279 279 279 280 280 280 279 280 279 279 279 280 280 280 279 280 280 280 280 280 280 280 280 280 279 280 280 280 279 279 279
Wind_Speed
10 8 8 5 1 1 1 5 1 2 1 1 2 1 0 0 1 1 1 1 2 3 2 4 4 3 1 4 12 7 1 6 0 2 1 1 3 1 2 6 7 6 6 5 5 4 6 8 9 12 10 10 11 11 12 12 12 11 10 9 7 7 10 8 8 8 9 7 8 9 11 11 11 12 11 11 9 11 12 11 12 12 12 11 10 9 7 7 7 9 9 9 9 9 8 8 7
7 7 6 3 1 1 1 1 3 3 4 2 4 1 1 2 0 2 3 2 2 3 1 7 9 12 14 13 8 3 10 6 2 1 1 1 1 3 2 6 7 8 6 4 4 4 4 6 11 12 12 11 11 11 12 12 11 10 9 9 8 9 9 8 8 8 9 8 9 11 11 11 11 11 10 11 10 11 11 11 11 11 10 10 10 9 8 7 8 9 8 8 8 7 7 8 7
7 7 5 2 2 3 1 3 2 1 1 0 2 5 2 1 0 0 0 6 7 6 1 3 6 5 4 2 8 7 2 2 3 2 1 2 3 1 3 5 4 7 6 5 5 4 4 6 11 12 13 12 12 12 11 11 11 10 9 9 8 9 9 8 8 8 9 9 9 10 10 10 10 10 11 10 10 12 11 11 10 10 9 8 8 9 9 9 8 8 7 7 6 6 6 6 6
5 2 0 2 1 3 1 2 3 5 0 3 2 2 1 1 1 1 0 2 1 1 0 4 7 3 2 13 3 0 3 3 2 2 1 1 0 1 3 6 5 4 5 4 4 3 3 7 9 11 11 12 12 12 12 11 11 10 9 8 8 9 8 9 9 9 9 10 9 10 9 10 11 11 10 11 11 11 11 10 10 8 8 7 7 7 7 7 7 7 6 7 6 4 4 4 4
3 3 1 3 3 0 1 0 2 2 1 4 3 2 1 2 1 1 3 3 4 1 2 2 5 3 3 7 1 3 4 6 5 2 2 3 2 3 4 5 5 6 5 5 5 2 3 8 10 11 10 10 11 12 11 10 10 10 9 9 9 9 9 9 9 10 10 10 10 10 9 9 11 11 10 10 10 10 9 9 8 8 7 6 6 5 5 6 6 6 5 5 7 8 5 3 2
1 2 1 1 0 1 4 1 0 2 3 4 2 1 1 2 3 3 4 8 3 5 2 4 3 3 3 4 3 3 3 3 5 3 2 4 2 4 5 6 5 6 5 5 3 5 2 8 9 10 10 10 9 10 10 10 10 9 9 10 10 9 9 9 10 11 10 9 10 10 10 10 9 9 8 8 8 8 8 8 8 7 5 5 6 7 5 5 6 6 6 5 6 7 6 6 2
2 3 4 3 2 3 4 2 3 3 2 2 1 1 1 2 2 5 5 4 5 8 7 4 2 3 7 3 3 3 2 1 2 3 2 5 3 5 6 5 8 7 7 5 4 3 4 8 8 8 8 10 9 9 11 11 10 10 10 10 10 10 10 10 10 10 9 8 8 9 9 8 8 7 7 7 7 7 7 7 6 7 7 6 6 5 5 5 5 5 5 5 5 5 5 5 4
0 2 1 2 1 1 1 2 3 4 1 1 1 1 2 1 3 2 4 3 2 3 3 1 1 6 6 3 4 4 7 6 5 5 7 3 7 5 6 6 6 6 6 6 3 3 6 8 7 9 9 9 9 8 8 10 10 10 9 9 9 10 10 9 9 10 10 9 8 8 7 7 6 5 5 5 5 5 6 5 5 5 4 5 4 4 3 4 4 4 4 5 5 5 4 4 4
3 5 0 5 1 3 3 2 3 2 2 1 3 3 4 2 3 5 6 2 2 4 6 5 1 6 1 1 3 1 4 11 6 10 11 11 9 7 7 5 7 6 6 5 4 5 5 6 8 8 8 8 9 10 11 9 9 10 9 8 8 9 9 9 8 9 10 9 9 8 7 6 5 4 4 4 3 3 4 4 4 3 3 3 3 4 4 3 3 4 5 6 6 7 7 7 7
2 1 2 2 4 3 1 1 1 1 1 0 3 7 5 3 6 10 8 11 6 6 5 5 3 10 7 6 1 4 4 13 10 11 9 9 9 10 13 10 8 7 5 5 4 6 4 11 12 10 10 11 11 11 10 10 10 8 9 9 8 9 9 9 9 10 9 9 8 7 7 6 6 5 4 3 2 3 3 4 3 3 3 3 2 2 2 3 3 4 5 5 5 6 6 7 8
2 4 1 4 2 4 6 2 2 1 1 3 3 6 6 3 7 8 6 5 1 1 1 6 9 5 2 5 5 3 11 13 14 9 8 9 9 11 9 11 11 11 10 8 8 6 6 7 11 10 12 12 11 10 9 8 10 10 10 9 9 8 7 7 7 7 7 7 7 6 5 5 5 6 6 6 4 3 2 3 2 4 4 4 4 3 4 4 4 5 6 7 7 7 7 7 7
2 3 1 4 5 8 5 5 2 1 2 4 3 7 6 5 3 6 5 8 4 8 8 8 3 1 5 3 8 11 13 21 13 8 9 10 10 11 11 11 13 13 12 11 9 6 7 7 6 8 12 12 11 10 10 9 9 9 9 9 8 7 7 6 6 5 6 6 6 5 5 5 5 6 6 5 4 3 3 3 4 4 5 5 5 5 6 6 6 7 7 7 7 8 8 8 8
3 1 5 4 4 2 3 5 4 2 1 3 3 6 5 11 11 12 10 12 11 10 10 13 6 2 3 5 3 10 19 15 15 13 13 15 15 14 14 15 15 16 13 12 12 9 6 6 4 5 9 12 12 12 11 10 9 8 8 7 6 6 6 6 6 5 6 6 6 6 5 6 6 6 5 5 4 4 5 4 3 5 7 7 7 8 8 8 8 9 10 9 9 9 9 9 9
3 5 6 5 1 4 6 3 2 3 2 1 3 3 9 7 7 6 8 14 13 8 3 11 3 3 8 3 7 9 9 13 12 7 11 14 13 14 15 13 15 15 16 17 15 12 9 3 4 6 7 7 7 8 9 10 11 12 10 9 7 6 5 6 7 7 7 8 7 7 7 6 5 5 4 4 6 5 5 5 5 6 8 10 9 10 10 11 11 11 11 12 12 12 12 12 11
1 1 4 4 2 4 2 7 8 6 2 3 4 3 9 9 7 12 13 12 13 8 4 15 6 4 5 5 3 7 10 14 12 6 13 14 15 15 14 12 14 15 16 16 14 14 13 7 7 8 8 7 7 6 5 7 10 10 11 12 12 12 13 11 9 8 7 7 6 5 6 6 7 7 6 4 2 5 6 5 5 8 10 12 12 10 11 12 12 13 13 13 13 13 14 13 12
2 4 3 4 5 7 4 3 3 9 3 10 9 11 20 11 6 13 10 6 7 13 16 9 16 7 6 11 6 10 11 11 9 7 15 16 14 13 15 15 14 14 13 15 13 12 12 11 12 8 7 7 5 5 5 5 6 8 9 10 9 8 7 6 7 7 6 6 6 6 7 6 5 5 8 6 5 4 4 2 4 7 8 9 10 12 12 12 13 13 13 14 14 14 13 14 14
1 3 3 2 5 6 4 5 8 6 8 2 1 1 8 10 10 16 10 12 20 14 17 13 11 8 13 8 8 9 9 8 6 19 17 14 11 11 12 12 11 12 11 14 14 13 13 15 14 9 8 7 6 5 5 5 6 7 6 7 6 7 5 5 4 2 3 3 4 5 5 3 3 4 5 5 6 4 5 5 6 7 7 9 10 12 13 14 14 15 14 15 16 15 13 13 11
1 3 5 4 3 6 2 5 5 8 11 2 8 3 14 13 4 5 9 17 14 15 17 10 15 16 12 9 8 7 6 11 17 19 15 13 11 11 11 11 11 11 11 11 14 15 12 11 11 12 8 9 7 5 3 4 4 5 4 3 4 5 6 7 5 5 6 4 5 3 3 2 2 2 3 4 5 5 5 6 6 7 8 10 10 10 11 11 12 14 15 16 15 14 12 7 5
3 2 2 8 3 0 0 2 8 12 6 9 11 9 9 9 2 2 14 11 11 15 13 13 14 14 13 12 11 10 9 17 18 18 18 17 14 14 11 9 11 11 11 10 10 13 12 10 11 11 11 10 8 7 5 5 6 4 4 5 6 6 5 6 6 6 6 6 7 7 6 5 5 4 3 4 5 8 7 8 7 6 6 8 9 10 9 8 9 10 11 12 13 13 8 6 5
1 5 4 2 4 3 7 2 6 10 19 17 16 9 18 7 7 3 11 12 18 17 11 12 14 13 14 13 12 11 10 19 19 19 17 16 14 12 12 12 11 11 9 8 9 10 12 11 11 10 11 12 10 6 6 6 5 6 8 8 7 7 8 9 9 9 9 9 9 7 6 7 6 5 9 11 8 5 5 6 7 7 7 6 6 5 7 8 9 9 9 9 7 3 4 5 5
1 3 3 3 3 4 7 10 13 8 16 16 15 14 21 15 12 4 8 18 14 11 12 10 9 11 11 11 11 9 16 20 17 16 16 15 14 11 10 10 9 9 8 8 10 11 13 12 11 12 12 11 11 10 10 10 9 10 10 9 9 9 9 9 8 9 10 10 10 8 8 8 7 7 7 6 6 6 6 6 5 4 3 3 4 4 4 5 5 4 4 5 4 4 3 4 4
3 1 1 7 7 12 4 9 11 14 8 20 11 18 13 6 21 18 17 16 7 8 10 11 9 9 9 10 10 10 18 17 16 17 16 16 15 13 11 9 8 8 9 12 11 11 12 12 12 10 11 12 12 10 11 11 13 11 11 10 10 10 10 9 9 9 10 11 9 9 8 9 9 8 8 8 7 7 7 7 6 4 4 4 3 4 4 4 4 3 4 5 5 5 4 4 4
5 2 3 3 6 14 3 7 7 10 10 13 13 9 14 18 14 12 21 17 10 9 9 10 10 10 10 9 9 14 16 16 17 16 15 17 15 15 13 10 10 11 9 10 9 9 11 12 12 11 11 10 12 11 10 10 10 9 9 10 10 10 8 9 9 9 9 11 11 11 9 8 7 7 8 8 8 7 7 7 7 5 6 7 6 6 6 5 5 5 4 5 5 5 5 4 5
7 3 3 9 10 16 8 12 12 13 23 17 14 14 15 14 22 8 21 13 13 11 10 10 10 11 10 11 13 13 14 15 16 15 14 13 14 14 12 12 10 8 9 10 10 9 10 13 11 11 11 11 9 10 11 10 9 10 9 9 10 9 9 9 9 9 9 11 11 9 8 7 7 8 8 8 8 7 7 7 7 7 7 6 6 4 5 6 5 5 5 6 6 5 5 6 5
8 6 7 9 15 14 13 15 18 23 19 18 21 24 15 20 13 15 15 13 12 12 10 9 9 10 10 14 12 12 15 16 16 14 13 11 11 11 12 9 11 10 13 12 8 10 11 11 11 13 11 11 10 9 11 9 9 10 11 10 10 8 9 9 8 9 10 9 10 11 10 9 9 8 8 8 7 8 8 9 8 9 8 8 7 7 6 7 7 6 6 6 6 6 5 6 5
1 8 9 12 14 14 13 16 15 18 11 18 25 15 6 8 15 21 12 13 10 9 11 11 9 12 13 11 10 14 16 15 14 14 12 9 11 13 13 11 10 13 11 9 10 9 10 11 13 13 12 10 9 10 8 10 9 10 10 10 8 9 9 8 9 10 9 10 11 10 10 9 9 8 8 8 8 9 9 8 9 9 8 8 9 9 8 6 7 7 7 7 7 6 6 6 5
11 16 18 19 12 14 6 17 12 12 11 15 26 16 15 13 5 8 11 10 9 9 11 9 10 13 13 8 12 15 14 14 14 9 11 10 11 12 11 10 11 9 9 12 10 9 8 10 11 11 11 10 9 11 9 9 9 10 9 7 7 9 8 7 8 8 9 9 9 10 11 10 8 8 9 9 8 8 8 8 9 8 9 9 9 10 9 8 7 7 7 7 7 7 6 6 6
16 19 20 18 15 16 12 12 11 10 10 14 28 19 17 9 14 8 7 7 8 8 8 9 10 12 10 13 13 11 11 11 10 11 14 13 11 9 10 9 9 10 11 11 8 7 9 11 10 11 10 10 10 10 8 9 9 8 8 8 8 8 8 8 8 8 9 10 11 11 11 10 9 9 10 9 9 9 8 8 8 9 9 9 9 9 9 9 8 8 9 9 7 6 6 6 6
17 26 19 15 12 11 7 3 3 1 12 5 4 22 20 18 8 7 4 5 6 7 8 9 11 11 11 10 10 10 12 11 10 11 11 9 8 8 10 10 9 7 6 7 8 9 10 8 9 10 9 9 10 10 9 8 7 7 8 8 8 8 8 7 8 9 9 9 10 11 11 11 10 9 9 10 9 9 9 9 9 9 9 8 8 10 10 9 9 9 10 9 9 8 8 9 9
11 17 16 12 12 10 11 4 4 2 2 3 3 7 6 8 9 7 6 5 4 7 8 8 7 9 9 7 7 10 12 11 12 10 9 8 8 9 9 9 9 8 7 6 9 11 8 6 6 6 8 10 10 9 8 8 8 8 8 8 8 8 8 8 9 8 9 10 10 12 12 12 11 10 10 10 9 9 9 9 9 10 9 10 9 10 9 9 8 9 10 9 9 8 9 8 9
13 11 11 9 13 4 6 5 3 5 8 2 3 10 2 6 7 7 6 5 4 7 7 7 7 7 7 7 8 10 10 9 9 9 8 8 7 7 8 8 9 9 8 9 10 9 9 8 7 7 8 8 8 9 10 9 8 8 8 8 8 8 8 8 8 9 9 9 9 10 11 11 12 12 11 9 10 9 9 10 11 10 9 9 9 9 9 9 9 9 9 9 8 8 9 8 9
10 11 8 5 10 4 3 9 8 3 2 7 19 10 5 6 6 7 4 4 3 7 7 8 7 9 9 8 9 9 8 7 8 9 9 7 6 6 7 8 8 9 9 7 7 8 10 10 9 8 9 10 9 8 8 8 9 8 8 8 8 8 8 9 8 8 8 8 9 9 10 11 11 12 11 10 9 10 10 10 9 9 10 9 9 10 10 10 9 8 10 10 10 11 11 11 9
2 4 10 8 10 5 5 11 6 4 2 13 6 11 9 5 5 5 2 3 3 6 8 6 7 7 9 9 8 8 8 8 8 10 10 8 7 6 6 6 7 7 6 6 6 7 8 9 9 11 11 10 9 9 8 8 8 8 8 8 9 9 9 8 8 7 8 9 8 9 9 10 11 11 11 10 10 10 10 9 10 10 9 9 9 9 9 9 10 9 10 11 9 9 10 12 12
4 4 6 5 14 9 7 4 13 6 10 10 16 16 8 9 6 5 6 6 5 6 7 7 7 7 7 7 7 7 7 8 10 9 10 9 7 7 6 7 6 7 8 9 9 8 8 7 7 8 7 8 8 8 8 7 7 8 8 8 9 10 10 8 8 8 9 8 9 10 10 9 10 11 11 10 9 9 9 9 9 11 10 9 10 10 10 10 10 10 9 10 9 9 11 12 13
14 12 12 9 12 9 8 5 1 18 16 20 16 19 12 8 8 7 4 5 4 6 6 7 7 8 9 8 7 7 7 8 8 7 9 8 9 8 8 8 9 9 8 9 9 8 6 7 7 8 9 9 8 8 7 7 7 7 7 8 9 9 9 8 8 9 8 9 9 9 10 9 9 10 10 10 9 9 9 9 10 10 9 9 10 10 10 11 11 11 10 9 9 8 10 10 11
9 10 12 13 12 6 11 10 6 19 16 14 10 14 10 8 6 4 3 3 5 5 6 6 5 7 7 7 6 6 5 7 6 6 8 8 8 8 8 7 7 6 7 7 8 8 8 8 7 8 9 9 7 7 6 6 6 7 8 7 9 9 8 8 8 8 8 9 9 9 9 9 9 9 9 9 9 9 9 9 9 9 9 9 10 12 12 11 13 13 12 11 11 8 10 10 12
14 14 13 12 16 11 9 11 11 12 20 13 9 13 10 8 6 5 5 5 5 5 5 5 4 5 5 5 4 3 3 3 3 5 5 6 6 6 6 5 5 4 6 7 8 9 10 9 8 11 8 8 7 7 7 7 7 6 7 9 8 7 7 7 7 7 8 7 8 8 9 8 9 9 9 9 9 8 8 8 9 9 9 9 9 10 9 10 10 9 8 8 11 10 10 12 12
16 13 17 10 15 10 4 4 2 4 11 7 6 12 10 6 5 4 4 6 5 3 3 3 3 3 2 3 2 2 2 1 4 5 6 5 5 5 5 5 5 9 9 8 9 9 8 8 10 9 8 9 9 8 7 7 7 6 5 6 5 5 6 7 7 7 7 7 8 8 8 8 8 9 8 8 8 8 8 8 8 9 8 8 8 7 8 8 10 10 8 8 8 10 9 11 12
14 13 13 14 9 11 10 10 8 7 21 6 6 11 7 6 4 3 3 3 2 2 2 2 2 1 1 1 1 1 2 3 4 4 4 5 6 6 5 5 6 5 6 8 7 7 9 9 9 8 8 8 8 8 7 7 6 6 5 4 5 4 5 5 5 5 5 6 7 7 7 7 8 8 8 7 7 8 8 8 8 7 8 7 8 9 9 10 10 11 11 9 8 7 5 8 12
14 9 14 10 9 8 6 7 6 6 5 11 7 11 6 4 3 3 2 2 2 2 2 2 2 1 2 2 2 2 4 4 5 5 5 6 5 5 5 6 6 5 6 6 8 8 7 8 7 8 8 8 8 9 7 7 7 6 5 4 4 5 4 4 4 5 6 7 8 7 7 7 7 7 7 7 6 6 7 7 6 7 7 7 7 7 9 9 9 9 10 9 7 9 9 9 9
4 11 13 12 8 6 10 6 13 19 15 11 10 9 4 3 2 1 2 0 1 1 2 1 1 1 2 2 3 3 4 4 4 4 4 4 5 5 4 4 4 5 6 6 6 6 5 6 6 6 6 7 7 8 8 6 6 6 6 5 4 3 3 5 5 7 7 6 6 7 7 6 6 6 6 7 7 7 6 6 6 6 6 6 6 6 7 8 7 7 8 8 9 7 9 6 7
7 4 8 14 16 18 18 16 15 7 6 4 5 4 2 0 2 2 2 2 1 0 1 2 1 2 2 2 2 2 2 2 2 3 3 3 3 4 4 5 5 5 6 5 4 4 5 6 6 7 6 6 7 6 6 5 6 6 6 7 8 7 7 7 8 7 7 7 7 5 6 6 6 6 6 6 7 6 6 7 6 6 6 6 5 5 5 5 7 8 8 6 7 7 4 7 7
12 1 2 19 18 20 17 13 11 7 10 2 1 1 2 0 3 3 3 3 4 1 1 4 3 3 2 3 3 3 3 2 2 2 3 3 4 4 4 4 4 4 4 4 4 5 6 6 6 5 5 6 6 6 7 5 7 6 6 5 4 4 4 4 3 4 4 5 5 5 5 5 4 5 5 4 4 5 5 5 6 5 5 5 5 5 5 6 6 6 6 6 6 6 5 6 7
5 2 9 17 20 16 10 6 5 7 4 6 5 3 4 2 3 2 3 3 5 5 6 5 4 4 5 5 4 4 3 3 3 3 3 2 2 2 3 3 3 3 4 4 5 5 6 6 5 6 5 5 5 6 7 6 6 5 6 5 3 4 3 3 4 4 3 3 5 5 5 5 5 4 4 4 4 4 4 5 5 5 5 5 4 4 5 5 5 5 5 5 5 5 5 5 6
8 11 8 8 6 6 6 9 10 7 7 4 4 8 3 2 1 2 3 4 7 10 7 6 5 6 6 5 5 4 4 4 4 3 2 2 2 3 3 3 3 3 3 4 4 3 4 4 4 4 5 4 5 5 4 5 4 4 4 4 5 4 3 4 4 3 4 4 5 5 5 5 5 5 4 4 4 4 3 4 4 4 4 5 4 4 4 4 5 5 6 6 5 6 5 5 5
3 12 8 3 7 10 7 6 7 3 6 2 5 5 1 2 0 3 1 3 11 8 8 8 7 7 6 6 5 5 4 4 4 4 3 3 3 3 3 3 4 2 3 3 3 3 4 4 4 4 4 4 3 4 4 4 3 3 4 3 3 5 4 5 4 5 5 4 5 6 5 6 6 6 6 4 5 4 4 4 4 4 4 5 4 4 4 5 4 5 5 5 6 5 5 5 6
15 10 11 8 8 5 3 5 3 5 4 0 1 2 1 1 7 10 10 9 5 5 3 4 4 6 7 6 6 5 5 5 4 4 4 4 4 4 3 4 3 3 3 2 3 3 3 3 3 4 4 3 3 3 3 3 2 1 2 2 2 3 4 4 5 6 5 5 6 6 6 6 6 6 6 6 4 5 5 4 4 5 5 4 5 5 5 5 5 5 6 5 5 6 6 6 6
7 5 5 9 6 4 6 5 6 4 2 4 1 1 2 2 2 4 8 2 4 9 8 9 10 9 8 6 6 6 5 4 3 3 4 4 4 4 3 4 3 3 3 3 3 3 3 2 2 3 5 4 3 3 3 3 2 2 1 1 3 3 3 3 4 5 6 5 5 7 6 6 6 6 5 6 6 5 5 6 5 5 6 5 6 6 6 6 6 5 5 6 6 6 6 6 6
6 6 5 6 1 2 1 6 1 1 4 1 4 4 2 5 4 2 7 10 5 6 7 11 9 7 8 7 7 5 4 3 3 4 4 4 4 5 4 4 4 4 3 4 4 3 3 3 1 2 5 4 4 3 3 4 3 4 3 3 3 3 3 3 4 5 5 5 6 6 7 7 7 7 7 8 8 7 6 6 6 6 6 6 6 6 6 6 6 5 6 6 6 7 7 6 7
2 2 4 6 5 4 3 2 1 4 5 3 3 2 1 3 6 1 4 8 7 7 7 5 9 11 10 8 6 4 4 4 5 4 4 5 5 5 4 5 5 5 5 5 5 4 4 4 4 3 6 5 4 4 4 4 5 5 4 3 4 3 4 4 4 4 6 5 5 6 6 7 7 7 8 8 8 7 6 7 6 7 7 7 6 7 7 6 6 6 6 6 7 7 6 7 8
3 0 2 4 5 4 4 4 2 4 3 2 3 1 3 0 2 2 6 4 4 3 3 2 2 3 2 2 2 3 4 5 5 5 6 6 6 6 6 5 5 6 6 6 5 5 4 4 4 5 6 6 4 5 4 5 6 5 4 4 4 3 4 5 5 4 5 6 6 6 7 6 7 8 7 8 7 7 7 7 7 7 7 7 6 7 7 6 6 6 6 7 7 6 7 8 7
0 2 3 5 0 3 5 5 3 1 1 1 0 3 2 4 1 3 2 1 1 0 2 1 3 4 3 3 4 5 6 6 5 5 7 7 7 6 6 6 7 6 7 6 6 5 4 5 5 5 6 7 6 5 5 5 6 5 5 5 6 5 4 4 5 5 6 5 6 6 8 7 8 7 7 7 8 6 8 8 7 7 7 7 7 7 7 6 6 6 7 6 8 5 7 9 8
2 2 2 1 1 9 7 2 3 1 3 1 0 7 5 7 4 3 2 0 2 0 2 2 5 4 3 5 6 6 7 6 6 7 7 8 6 6 7 7 7 6 6 7 7 6 6 6 5 7 7 6 6 6 7 6 6 5 7 6 6 6 6 6 7 7 8 7 6 7 7 8 8 8 8 6 8 7 8 8 8 8 7 7 7 7 7 7 7 7 7 8 9 7 7 9 8
3 5 5 3 3 7 3 3 3 4 2 2 2 2 7 4 2 2 1 2 5 4 4 5 5 5 6 9 8 9 9 9 7 5 5 7 7 7 7 7 7 8 8 7 8 6 5 6 6 7 7 8 8 6 7 6 6 6 7 8 7 7 7 7 6 7 7 7 7 7 7 7 8 8 7 8 7 9 8 8 8 8 7 7 7 7 7 8 7 7 8 8 8 8 9 9 8
5 6 3 1 0 1 3 5 1 1 0 3 6 3 6 5 5 1 4 6 9 9 6 5 8 8 10 9 9 8 6 5 7 8 8 8 9 10 9 9 8 7 7 8 8 6 5 5 7 7 10 10 9 7 5 6 6 6 6 8 8 8 7 7 7 7 6 7 9 9 9 9 8 8 8 8 8 8 8 8 7 8 8 8 7 7 8 8 8 8 8 9 8 8 9 10 10
4 2 3 1 5 2 3 0 2 5 0 1 1 3 1 7 4 6 6 9 9 7 5 10 11 10 10 9 9 9 8 8 8 8 9 10 10 9 9 9 9 10 9 8 8 6 7 9 7 8 7 8 8 9 8 8 9 7 8 7 8 8 8 8 8 7 8 8 9 9 10 9 11 8 8 8 8 9 9 10 9 8 9 9 9 9 8 9 9 8 9 9 10 9 10 12 12
7 7 5 4 2 1 5 2 3 1 5 2 0 3 4 4 4 3 6 4 5 5 10 10 10 10 9 8 8 8 8 8 9 10 10 10 10 9 9 9 9 7 6 6 7 8 9 6 7 8 9 9 8 10 7 9 8 8 7 9 10 9 9 7 7 7 8 9 9 9 10 10 8 9 9 9 9 10 10 10 10 9 9 10 10 10 9 9 9 10 10 10 11 11 11 12 11
1 1 3 3 1 1 0 1 1 2 2 1 2 2 8 8 2 4 4 4 4 4 6 8 7 8 7 8 8 9 8 9 9 9 8 9 9 9 9 7 6 6 8 9 9 7 8 9 10 8 7 8 9 10 9 9 7 7 8 9 10 8 8 7 7 8 9 10 10 10 10 9 9 11 8 10 10 10 9 10 9 10 10 10 11 11 11 9 10 11 12 9 10 11 12 13 12
Wind_Direction
331 329 311 313 328 259 45 6 149 312 48 251 339 332 118 43 256 2 166 3 72 319 316 44 52 33 134 131 119 138 185 86 183 116 161 245 310 108 110 124 122 121 124 133 139 152 153 166 127 117 113 116 119 117 114 112 111 111 115 111 108 98 89 87 86 85 86 81 81 94 90 89 82 76 74 81 74 66 58 50 50 54 60 57 60 64 63 61 53 51 54 52 57 63 63 72 78
323 320 312 301 284 54 202 122 99 349 41 29 246 109 252 302 15 226 122 83 160 136 176 78 66 71 91 117 126 119 50 45 184 209 276 248 306 48 100 132 134 130 128 123 134 136 135 140 117 116 116 115 115 116 115 115 115 114 113 106 100 93 88 94 89 87 97 99 96 84 84 75 69 70 74 67 64 65 57 48 44 44 43 43 52 57 56 55 58 60 65 71 68 64 74 76 72
325 335 328 11 35 74 81 34 286 80 81 262 272 213 327 75 130 272 240 128 138 150 165 84 93 62 22 45 48 35 84 310 23 353 100 344 87 317 98 132 127 122 119 120 136 117 117 116 123 122 117 116 113 115 118 119 116 111 110 106 95 91 93 87 86 83 87 99 99 96 85 82 77 73 71 67 58 54 47 41 34 32 33 36 39 43 48 44 51 65 63 53 49 54 70 78 79
321 260 303 11 211 27 61 24 90 123 136 205 298 301 26 177 139 99 21 111 80 12 17 19 52 301 74 50 52 40 37 353 347 300 348 340 314 155 139 138 121 106 89 99 84 78 88 106 114 114 114 117 118 116 112 109 109 105 101 90 84 84 88 88 90 91 97 97 94 87 86 80 80 80 73 59 53 48 41 32 25 21 29 32 37 36 40 36 34 37 27 25 27 65 68 70 75
333 308 124 87 106 320 101 161 136 96 218 198 119 285 285 219 8 3 2 336 9 3 62 108 79 327 57 85 46 69 322 285 293 351 286 281 269 152 127 125 122 78 78 77 91 22 80 110 120 115 118 119 118 114 109 104 99 93 86 83 76 75 82 91 98 98 98 97 92 92 93 90 76 66 61 60 56 47 40 36 31 22 21 23 21 20 15 29 28 8 7 7 20 21 22 21 24
52 38 345 103 49 166 57 65 40 196 215 152 82 80 294 212 84 99 83 54 22 46 84 61 150 185 43 29 9 64 339 23 312 326 346 323 41 108 122 110 114 88 99 105 96 118 134 100 109 116 118 118 111 109 108 104 98 92 88 81 77 83 90 96 98 98 99 100 102 101 88 74 69 69 67 60 55 49 44 44 40 34 24 20 26 13 24 37 18 8 5 356 16 13 15 15 5
8 40 355 36 27 55 171 141 219 192 290 166 112 333 346 297 183 127 0 32 9 49 14 73 33 63 70 338 2 80 60 339 334 312 327 290 84 116 89 114 142 109 113 112 76 53 92 83 105 105 107 112 111 107 104 103 100 94 90 87 91 88 86 90 94 95 95 95 91 88 87 87 84 81 68 61 58 53 49 54 47 46 42 34 20 5 6 357 0 11 360 4 354 4 8 22 20
142 126 293 110 186 57 106 180 238 168 29 194 202 274 336 259 192 80 11 90 326 55 350 9 121 90 68 185 85 343 23 3 7 17 1 22 24 43 117 166 124 117 97 85 84 68 77 76 92 96 101 108 110 108 105 103 102 95 92 90 89 89 92 96 92 81 77 78 83 81 78 80 89 83 71 68 67 59 54 54 62 56 48 39 23 13 344 29 12 3 352 343 332 331 330 338 334
349 83 280 77 113 34 75 164 236 231 296 299 339 243 307 291 188 111 45 59 61 33 7 312 16 68 303 41 64 317 30 4 29 37 27 21 19 21 18 344 117 75 62 103 72 77 78 48 68 86 92 90 84 76 78 96 104 111 99 88 86 82 85 92 86 84 77 73 68 64 67 73 74 69 59 55 62 46 48 49 46 43 47 37 35 23 21 22 6 341 340 335 332 323 313 302 301
29 95 218 148 124 168 84 297 132 228 173 230 24 354 341 336 84 83 113 72 87 83 35 19 99 112 174 66 97 35 7 15 17 37 29 31 20 27 33 12 34 88 89 77 78 95 77 65 49 61 79 77 80 82 79 88 102 92 91 89 82 76 71 72 75 78 75 69 64 57 50 43 42 37 28 28 40 28 21 21 16 6 4 354 8 356 336 354 334 324 317 315 314 316 314 309 307
175 11 151 97 112 163 177 235 249 318 11 333 26 351 8 10 95 71 65 110 351 75 321 350 61 98 190 76 72 27 7 20 13 28 28 40 42 37 28 35 35 39 54 41 74 55 48 52 49 57 82 78 76 74 72 74 73 78 78 80 79 71 67 64 64 68 68 63 59 48 41 30 24 19 24 21 7 3 357 350 350 341 337 330 319 308 301 298 292 297 290 289 290 291 293 292 294
97 143 71 141 180 174 207 170 174 217 352 19 22 1 345 22 35 72 38 64 2 53 46 353 127 191 62 60 37 4 2 13 345 349 29 43 42 41 40 39 36 46 37 43 43 56 55 58 27 52 77 80 76 71 68 61 63 70 80 79 76 71 65 60 63 62 63 65 55 46 30 19 15 10 6 16 357 340 305 307 312 316 314 305 304 294 287 292 288 276 277 276 277 283 280 280 280
132 110 101 107 216 145 176 129 206 106 9 35 355 357 340 51 58 86 75 65 31 44 11 345 286 18 86 47 34 356 21 346 6 29 47 55 51 43 39 41 39 36 32 28 34 24 39 53 51 46 62 60 56 54 50 47 49 54 59 68 71 71 67 59 54 45 44 46 51 43 29 17 7 7 1 355 353 336 311 307 294 290 300 304 302 304 296 290 287 281 276 278 277 273 275 277 276
121 181 135 189 38 128 140 178 151 108 42 307 7 11 37 61 31 55 90 63 26 42 90 359 15 347 56 17 19 5 349 337 345 5 53 55 55 49 45 44 40 40 35 31 25 19 3 62 86 66 60 58 50 48 45 45 44 40 36 33 41 61 72 68 58 45 46 44 39 31 27 22 8 9 352 343 340 337 327 322 315 297 296 307 310 310 305 302 295 290 287 290 290 290 290 289 288
133 175 79 107 148 129 234 137 184 124 67 44 17 34 72 42 68 58 49 82 37 351 244 29 331 54 337 358 10 352 328 324 321 320 56 51 48 49 43 41 42 38 35 32 27 20 0 326 77 57 47 52 52 50 48 44 49 49 43 39 35 32 27 20 36 43 44 36 27 19 10 358 345 335 337 338 313 314 334 360 1 328 313 306 301 298 299 297 298 302 297 288 285 289 294 293 288
150 86 88 120 181 168 225 127 135 114 100 116 135 93 74 53 43 62 32 63 102 43 52 24 27 62 52 58 353 326 320 316 296 41 49 44 38 41 39 35 35 32 35 32 29 20 9 6 43 42 34 43 52 62 53 50 45 55 57 51 41 40 35 32 36 6 17 24 4 0 347 344 333 326 324 318 315 308 312 301 293 287 288 288 294 297 297 295 297 298 293 290 288 288 288 292 293
65 77 123 87 199 178 218 146 159 158 141 160 278 46 106 83 73 80 82 61 64 52 63 43 58 44 43 29 349 326 325 292 30 48 43 40 33 34 33 30 28 29 24 26 25 22 16 21 18 28 31 23 25 37 42 35 33 31 43 61 43 33 30 27 36 30 337 8 13 351 343 338 322 323 325 313 308 301 290 275 269 267 268 284 292 298 298 298 297 296 298 303 299 300 305 298 291
61 151 128 168 191 175 206 155 179 132 128 109 71 61 108 108 87 95 37 39 63 58 56 47 50 47 38 9 350 331 310 36 42 51 43 44 35 36 35 28 29 28 24 20 21 20 18 21 16 16 16 20 19 24 35 32 28 33 42 51 41 24 15 18 7 357 350 350 346 340 330 312 321 320 314 317 309 305 295 285 274 273 280 291 291 291 292 294 296 300 303 305 304 304 309 311 298
104 101 129 197 175 155 132 169 137 119 98 101 78 48 72 55 83 32 80 38 37 45 29 26 33 22 14 9 354 356 357 41 43 47 46 41 36 34 32 24 24 20 22 21 21 21 16 16 18 17 22 14 16 25 24 27 23 7 25 38 32 22 22 27 9 359 358 356 345 337 336 339 334 318 304 296 302 305 309 312 311 303 295 295 298 297 284 283 288 291 294 298 302 298 297 293 296
207 117 148 197 206 80 23 100 74 109 124 101 89 64 66 24 62 64 87 77 45 43 16 5 21 7 357 355 359 347 27 48 43 43 41 39 35 32 28 23 21 19 17 19 20 19 18 18 17 20 23 21 18 20 34 40 30 29 37 39 41 38 35 35 30 28 23 18 16 3 354 346 335 326 322 324 321 325 318 320 318 321 322 323 321 315 314 312 310 308 304 298 294 289 284 279 284
221 78 139 176 206 84 359 86 104 96 105 103 101 90 67 45 37 44 136 72 38 34 27 27 10 1 351 348 8 352 45 48 41 40 39 36 35 37 36 32 26 18 10 21 26 19 14 13 15 19 22 25 23 25 34 35 33 40 39 37 40 39 38 36 34 32 27 26 24 19 13 11 3 352 345 344 342 335 329 317 319 317 315 315 326 318 306 305 308 301 300 297 276 266 256 261 263
90 77 239 136 115 71 33 78 90 103 88 101 84 81 108 91 48 40 55 74 54 21 21 24 20 15 1 358 15 26 51 51 44 42 40 38 31 30 28 24 26 29 15 31 16 16 13 14 17 18 27 28 30 34 37 35 37 36 35 34 39 36 35 37 34 32 27 22 24 17 16 18 12 8 6 360 354 347 335 328 323 321 328 305 306 305 304 307 308 305 301 293 288 282 266 259 252
107 356 38 34 112 109 78 84 79 98 92 80 81 82 92 80 78 44 59 58 60 52 35 29 29 20 15 9 26 42 52 52 46 42 37 37 29 26 26 23 20 21 17 28 18 18 13 16 16 22 31 29 33 38 44 43 40 41 40 37 40 35 35 34 33 31 28 25 22 19 18 10 10 10 5 2 2 354 351 346 340 342 329 327 328 333 327 320 315 311 301 292 297 299 292 285 280
94 74 56 47 94 93 94 89 91 83 88 79 93 89 74 95 73 34 60 43 42 42 42 37 35 30 26 27 29 44 55 52 50 43 39 39 34 30 22 26 17 11 23 15 18 17 17 17 16 26 31 30 29 34 47 44 40 40 39 38 40 32 38 35 34 30 29 28 24 21 15 17 14 13 7 5 0 359 2 354 355 1 357 349 340 344 328 324 325 320 316 313 312 307 304 302 299
98 84 89 88 76 91 94 101 96 91 86 97 79 75 73 72 91 58 43 37 35 37 27 33 39 36 36 40 30 36 48 49 47 40 40 36 32 31 30 26 21 22 27 14 3 13 14 14 15 29 23 28 31 33 47 45 42 44 40 38 36 25 41 37 37 37 35 27 27 24 19 17 18 15 11 3 356 12 8 11 10 8 2 359 351 349 351 337 329 329 325 321 320 316 314 310 310
56 114 101 96 95 99 109 92 89 95 97 91 73 65 65 112 71 54 29 13 18 36 33 15 25 36 32 35 29 43 43 44 43 37 34 31 30 31 26 24 19 31 20 10 14 10 3 8 18 22 23 33 36 41 40 45 40 46 40 39 36 37 40 38 39 42 35 30 27 22 20 22 21 16 11 6 13 15 13 11 17 12 4 0 2 359 350 346 340 335 336 329 324 320 315 307 312
118 109 105 100 104 99 62 99 84 80 78 89 84 59 44 28 96 66 33 24 6 36 50 26 36 45 38 23 35 40 38 38 40 33 36 30 30 31 23 18 24 23 16 22 15 9 359 18 20 16 28 30 37 46 42 45 43 48 43 37 38 38 35 42 45 43 38 32 24 20 24 22 17 17 17 13 17 19 18 17 17 10 12 10 10 4 1 358 352 352 346 338 331 327 321 318 318
114 108 90 87 93 91 95 88 110 97 70 79 92 76 55 23 60 74 52 35 25 28 34 45 43 45 32 31 34 40 44 36 36 32 31 25 21 18 20 16 12 15 21 18 12 358 18 24 20 22 28 36 43 47 42 44 42 42 40 40 40 37 32 41 43 42 40 33 25 24 23 18 15 17 18 18 18 19 19 18 17 16 14 9 10 7 6 3 6 5 1 353 345 333 330 331 329
128 110 100 117 108 83 17 21 30 53 134 155 48 64 28 25 59 37 66 55 42 37 36 24 46 47 35 30 37 44 48 41 37 39 31 26 18 12 23 15 10 13 11 11 6 18 21 16 28 27 30 41 48 46 48 48 43 36 40 40 35 34 33 30 35 34 36 32 27 25 23 19 15 17 16 19 18 22 22 19 20 19 15 9 8 6 7 7 5 4 4 358 0 358 359 359 349
122 103 124 120 103 69 355 357 10 33 152 331 5 69 8 24 42 35 36 53 45 48 30 26 35 47 48 37 39 49 46 41 40 39 34 26 18 15 22 15 16 15 8 2 12 22 16 13 21 28 31 40 48 51 46 48 44 47 44 43 40 36 38 39 38 37 35 32 29 26 25 20 17 16 16 18 19 23 20 19 18 19 13 10 10 8 9 7 8 6 5 358 1 5 3 356 350
118 127 114 129 117 87 18 22 330 63 313 273 108 111 130 41 44 35 21 22 48 58 54 36 32 44 41 39 38 46 48 42 39 36 36 33 26 19 19 19 21 20 21 16 15 6 15 17 17 32 28 38 43 52 53 51 47 48 47 45 44 43 44 44 41 39 37 33 29 29 25 24 20 17 13 16 20 21 20 20 21 18 11 9 13 13 11 10 11 9 1 2 355 7 360 354 351
137 122 132 153 122 123 49 27 15 106 15 32 84 75 103 89 72 57 21 25 14 75 63 52 41 46 38 29 31 40 49 38 38 35 31 33 30 25 22 21 19 23 26 23 21 18 23 15 14 29 32 37 38 42 54 56 53 52 52 50 47 43 47 46 41 40 37 34 33 31 24 27 24 19 17 17 24 22 21 19 15 10 12 13 16 15 13 14 8 8 11 4 3 9 357 354 351
202 120 141 130 114 158 117 9 358 38 51 8 122 129 119 85 91 80 42 359 34 65 60 56 54 52 48 38 32 29 28 31 32 27 22 19 22 27 21 20 20 20 19 20 25 24 29 17 19 21 20 27 32 36 42 52 53 52 51 50 48 46 46 44 42 37 38 36 33 32 24 26 26 23 20 19 28 24 22 21 13 9 11 16 15 14 17 12 11 11 12 7 7 5 359 353 352
169 141 125 111 132 154 117 53 24 42 102 59 85 101 89 116 107 81 41 26 18 51 56 52 53 50 62 54 39 30 28 26 28 13 14 10 9 14 21 22 19 17 20 25 24 23 20 17 19 24 20 25 32 31 34 42 45 49 49 48 47 49 46 43 41 37 38 35 31 32 25 26 27 25 23 22 28 26 25 23 17 14 14 17 19 17 18 12 13 12 10 7 4 12 5 1 353
155 144 127 101 68 53 77 102 47 77 72 89 87 88 108 103 99 91 88 63 49 43 40 49 38 51 48 43 42 38 29 30 24 16 14 8 7 10 16 20 18 18 22 22 25 24 24 25 25 24 22 20 24 27 28 37 42 46 49 48 48 47 46 44 39 42 38 35 35 29 28 28 24 25 25 24 28 26 26 23 23 17 18 19 21 20 18 14 14 10 12 7 7 15 11 2 353
124 123 121 122 111 101 103 102 82 96 76 67 62 108 103 80 69 71 78 65 58 52 47 40 34 41 43 48 32 29 28 37 12 8 15 15 8 6 13 8 12 13 16 18 23 26 28 29 27 29 27 19 20 26 27 33 36 39 38 38 45 40 39 39 38 40 35 38 30 30 29 29 23 25 26 25 27 28 27 24 24 19 20 20 22 23 17 14 10 7 9 7 6 6 15 4 357
91 90 95 95 97 83 90 108 141 90 81 49 69 81 79 71 50 44 33 31 38 41 38 32 23 34 42 38 33 4 22 30 344 3 10 7 1 1 2 2 2 8 21 19 25 26 26 27 25 33 19 19 26 23 26 27 29 30 37 40 43 36 35 35 38 33 35 34 30 30 29 28 25 22 25 24 28 25 28 25 25 24 20 24 25 23 15 12 11 11 6 4 7 8 11 6 359
100 101 98 83 91 104 87 103 289 301 106 99 77 81 70 63 57 46 38 51 39 21 30 28 24 26 28 24 2 339 336 343 14 13 2 3 358 358 359 5 7 20 14 15 23 21 22 22 33 27 21 23 26 29 23 29 28 29 36 34 41 38 35 34 32 26 26 25 28 28 27 24 24 25 19 24 26 26 24 24 24 21 21 22 23 17 17 14 11 13 9 14 11 11 9 2 356
104 104 105 94 88 100 78 72 78 80 95 131 111 87 68 56 52 38 58 71 46 38 43 25 23 3 342 338 316 323 336 4 17 9 352 353 355 358 5 8 11 16 9 18 10 17 22 25 24 23 22 24 24 22 29 28 16 20 35 36 33 43 33 35 39 25 19 23 23 24 22 20 20 22 18 15 24 19 21 20 19 14 20 18 17 16 14 15 11 9 9 12 2 10 5 359 4
114 117 110 109 148 126 112 18 40 23 109 141 123 94 81 70 41 29 31 51 73 59 59 28 357 356 334 319 320 323 352 352 358 356 342 346 349 353 2 10 4 3 16 15 13 17 18 20 19 18 19 22 20 19 21 18 20 18 23 30 32 53 39 8 24 26 22 19 20 12 18 15 12 16 15 14 14 18 17 16 8 13 12 14 16 13 9 10 6 4 6 5 4 5 9 359 4
26 118 115 131 149 66 114 105 86 83 73 112 122 86 87 32 41 51 310 11 99 54 24 23 343 293 297 325 349 353 334 335 335 335 334 341 349 352 356 354 354 14 14 15 10 13 16 13 13 16 19 20 21 18 15 13 15 22 14 17 22 17 32 29 25 21 17 11 6 10 3 4 5 9 9 11 10 10 10 10 10 5 6 5 12 11 9 2 357 355 357 0 4 5 354 350 349
85 1 133 129 115 117 115 124 110 76 87 293 318 96 322 245 286 240 188 289 249 159 2 280 280 297 341 327 306 319 307 273 252 284 302 308 322 331 355 0 8 6 12 358 358 5 13 9 10 13 17 22 20 18 13 19 29 32 23 31 26 21 22 18 16 2 353 1 352 333 345 355 359 360 3 2 6 3 3 2 2 2 0 358 6 5 352 351 356 356 354 352 347 352 350 338 342
111 273 135 123 129 127 130 134 108 127 137 200 17 88 181 161 251 219 218 237 264 284 250 265 284 278 269 251 256 257 252 295 309 301 307 333 329 348 348 358 351 1 349 340 356 5 9 9 7 12 14 18 14 13 15 18 28 30 33 37 50 34 25 351 347 332 343 332 333 339 335 338 350 354 346 354 353 352 353 353 354 352 350 346 349 357 353 352 342 342 340 347 337 333 347 346 341
47 27 118 126 129 126 129 106 76 101 90 121 89 3 116 206 249 184 185 240 260 267 253 250 251 253 251 247 247 252 254 242 249 270 274 276 289 302 315 313 333 323 316 346 3 4 6 358 0 3 7 10 14 5 17 18 28 21 23 19 19 25 15 337 328 320 320 318 334 330 331 331 333 341 337 337 341 341 342 341 343 342 339 335 335 345 339 329 331 322 333 328 325 329 333 333 322
118 106 92 69 72 95 92 100 110 120 119 45 5 358 73 280 281 26 132 249 250 247 240 236 240 243 248 250 246 245 242 235 227 247 258 273 287 304 295 310 310 317 346 348 340 336 343 353 360 3 8 6 358 6 15 14 20 29 29 20 3 349 345 333 323 321 325 329 335 329 335 329 330 330 331 327 325 330 331 326 328 331 329 323 324 322 321 320 318 320 321 328 326 319 319 310 316
71 96 80 91 89 65 56 71 97 73 71 91 349 11 122 264 42 213 328 276 246 226 223 227 227 231 236 239 247 245 247 250 246 237 253 274 262 262 266 288 294 294 319 321 320 346 1 356 2 357 348 349 339 357 6 8 18 19 31 12 8 330 335 325 335 327 327 334 330 325 326 327 326 325 325 320 319 316 317 316 317 318 313 307 313 311 305 311 311 310 307 306 310 309 301 304 297
118 88 94 73 57 47 39 64 51 67 39 254 282 297 168 271 223 202 170 223 199 195 239 244 249 247 246 239 239 234 232 237 241 247 256 253 260 261 283 284 272 310 319 325 336 347 335 358 349 341 307 307 330 339 349 343 345 23 16 347 332 322 320 325 335 328 330 333 332 318 321 314 309 306 309 308 304 305 307 310 309 304 302 300 305 305 302 299 299 299 299 299 296 295 297 293 291
73 103 124 109 49 25 41 354 29 95 276 261 281 336 317 162 297 245 226 263 195 176 190 201 217 224 231 235 237 238 235 236 250 266 273 280 305 294 289 286 297 295 321 326 317 319 315 312 335 327 310 311 313 317 326 322 325 309 300 294 307 290 296 312 316 306 310 310 308 308 305 309 307 304 300 298 305 302 304 306 304 303 301 303 297 292 292 290 286 288 289 287 284 280 280 281 277
79 91 43 90 103 50 65 4 48 53 177 309 15 1 12 256 222 223 215 220 230 221 195 196 203 217 228 236 236 237 238 249 255 250 259 270 257 263 276 278 300 295 285 283 277 275 276 272 257 315 294 293 296 303 304 303 306 302 292 295 288 289 300 300 294 300 296 301 302 308 313 310 311 314 307 310 302 306 306 304 302 298 296 289 286 287 284 283 281 277 276 278 276 277 275 272 276
77 73 106 71 84 41 128 306 311 319 288 281 26 330 262 275 302 238 226 229 219 203 217 207 195 203 212 222 228 235 245 232 235 241 247 248 251 256 253 260 266 270 269 263 262 261 261 274 276 273 279 284 289 301 298 307 296 286 280 270 276 278 288 284 281 278 291 289 286 284 285 283 285 279 285 280 282 291 291 283 284 281 275 277 275 274 274 273 273 271 270 270 274 271 271 269 267
66 130 129 156 137 157 163 186 154 207 187 295 312 21 244 51 241 217 231 248 268 257 264 287 285 287 297 313 296 274 264 257 240 243 241 242 249 244 248 248 250 250 256 260 257 254 262 271 272 274 281 284 284 281 296 290 286 288 284 277 273 267 263 271 273 269 273 282 280 277 276 277 273 277 275 279 282 281 275 276 271 270 272 272 274 273 272 271 269 268 262 262 265 266 265 266 265
317 170 78 59 78 147 119 204 143 163 89 10 204 213 189 204 245 282 309 291 300 164 244 263 271 259 269 278 250 241 240 244 240 241 251 252 247 252 254 253 247 246 249 257 262 261 263 258 257 256 256 268 275 278 273 265 273 275 277 278 273 265 265 268 277 277 269 253 268 271 278 278 277 279 280 281 280 275 277 275 274 270 269 270 269 270 274 276 277 277 276 269 273 269 272 270 269
227 55 46 140 118 97 104 57 62 105 52 232 123 308 287 290 310 332 336 325 268 356 247 246 254 257 257 251 245 242 240 241 242 235 238 248 255 248 243 247 251 251 254 248 248 243 241 254 260 266 264 264 261 255 257 261 261 269 273 263 263 267 261 264 267 273 275 275 272 272 271 274 280 277 276 273 278 277 274 275 277 276 275 272 273 273 273 276 277 277 279 280 278 277 273 274 274
63 85 189 111 121 124 122 148 334 55 147 241 29 248 304 18 285 331 0 275 263 256 241 234 246 246 246 238 236 232 231 231 239 250 250 250 251 253 255 249 244 245 245 253 253 247 238 241 242 251 262 264 263 253 257 255 258 263 269 273 269 258 260 264 260 261 267 273 275 273 272 276 271 274 271 275 273 273 274 273 275 277 275 274 273 278 278 278 279 277 275 274 273 275 276 276 271
106 144 167 92 231 44 335 88 54 54 299 288 315 259 249 197 253 354 252 215 234 234 226 230 238 235 236 240 242 244 247 256 254 249 249 249 243 244 244 246 247 247 250 248 256 253 248 243 239 231 248 251 256 263 259 264 250 252 258 262 266 271 264 257 257 257 263 265 269 271 272 270 278 274 275 274 275 275 275 276 273 278 280 278 278 276 277 279 277 282 281 281 278 275 274 278 275
30 39 33 342 87 115 80 114 170 109 215 52 292 44 264 205 224 200 233 217 221 221 222 231 231 229 232 233 237 239 236 235 241 242 242 242 243 242 241 241 246 243 243 245 249 258 252 247 243 244 247 255 263 261 256 260 260 250 257 262 263 256 260 260 259 261 263 262 263 266 270 275 268 275 270 271 272 274 276 279 280 279 283 283 282 281 278 279 281 276 280 281 281 278 277 277 280
336 29 352 4 38 225 115 47 63 10 154 149 239 0 288 277 220 196 245 249 251 216 218 226 232 234 234 236 236 237 233 234 236 238 241 243 246 248 247 243 246 255 252 251 242 239 246 251 248 243 243 255 255 256 256 254 259 260 257 260 264 267 264 258 260 258 260 262 266 266 265 262 277 271 271 275 272 274 277 277 280 281 281 283 283 282 280 280 280 280 278 276 279 279 276 276 278
149 112 119 173 76 64 70 341 80 69 80 217 87 281 267 272 172 225 249 247 239 227 232 253 252 247 239 239 239 231 237 237 239 242 242 248 250 253 256 256 257 262 262 254 250 245 249 247 244 251 244 247 252 261 251 254 255 257 258 261 263 268 267 268 266 266 264 263 263 264 264 273 266 270 269 271 273 274 276 277 279 280 280 279 278 277 278 277 277 279 279 276 277 278 278 277 278